Powrót do katalogu

CZ-4 DEB

AktywnySSO
NORAD 26313·DEBRIS·🇨🇳 China

Wystrzelony Oct 14, 1999 z Taiyuan Satellite Launch Center

Loading…

Następne Przeloty (najbliższe 24 godziny)

TLE

ŚwieżeSource: Space-Track

Epoka: Sep 14, 2026, 04:23 UTC

1 26313U 99057GW  26257.18313209  .00001434  00000-0  30996-3 0  9996
2 26313  98.4391 325.5211 0071219 206.4605 177.5349 14.58350329394993

Śledź CZ-4 DEB w czasie rzeczywistym z AllMySat

Download on the App Store